15:40
Airports
History
Links
Donate
Help keep this website running!
PayPal
Bitcoin
This page is community maintained. The information is intended for PC simulator navigation or reference.
Always use approved charts for navigation.
SSGI
Astral
Astral (SSGI)
Eldorado do Sul, Rio Grande do Sul, Brazil (92990)
4
Lat/Lng:30° 3' 37" S / 51° 26' 15" W
-30.060278 / -51.4375
Elevation:33'ft / 10mMSL
ID / ICAO:SSGI
Runways:1
Longest:11-29
Dirt 901m / 2,957ft
Nearby Weather15:00 GMT 2018-02-20
Nearby weather at SBPA, Salgado Filho located 16.6 nautical miles from SSGI
Altimeter: 29.62
Visibility: 5.6 statute miles
Wind: 11 knots (from 290°)
Temp: 25°c / 77°f
Humidity: 83.5%

METAR: SBPA 201500Z 29011KT 9000 BKN010 OVC030 25/22 Q1003 RERA

(Powered by phpweather)
Runway 11 / 29
Dimensions:901.2 x 22.9m 2957' x 75'ft
Surface:Dirt
Runway 11 [A]Runway 29 [B]
Heading:095°TH 275°TH
Lat:
Lng:
30° 3' 35.72"S
51° 26' 31.79"W
30° 3' 38.28"S
51° 25' 58.21"W
User Notes and Comments
30° 3' 37" S / 51° 26' 15" W
Distance To
Airport ID:
Nearby Airports
4 Aeroclube de Eldorado do Sul 0.8 NM
SIXE NNW 332°
4 El Dorado 1.9 NM
SSMK ESE 117°
4 Fazenda do Jacui 9.8 NM
SSJC NE 56°
(C) Salgado Filho 16.6 NM
SBPA ( WX ) ENE 74°
4 Belem Novo 17.6 NM
SSBN ESE 120°
(C) Canoas 19.2 NM
SBCO ( WX ) ENE 65°
(C) Montenegro 23.8 NM
SSNG N 352°
VFR Chart
Flight Planning at SkyVector.com